Disclaimer

Please do not use the information listed here in-flight or in-navigation, as they are not provided to us by the airports but are provided by volunteers, so they might be outdated.

Search


Regions


Airport information page

Radio informations:
FIGARI TWR - 120.3 MHz
FIGARI GND - 121.8 MHz
FIGARI INFO - 118.725 MHz

Airport informations:
Latitude: 41° 30' 02.01" N
Longitude: 009° 05' 52.00" E
Elevation: 87 feet - 27 meters
Operating hours: Remarks
Operating agency: Civil government, landing fees and diplomatic clearance may be required
Timezone: UTC+1(+2DT) - Last Sunday in March to last Sunday in October
Fuel: Jet A1+, Jet A1 with icing inhibitor.

100/130 MIL Spec, low lead, aviation gasoline (BLUE)

Runway information:
05/23 - 8136 x 148 feet< - >2480 x 45 meters

Recent METARs:
LFKF 171330Z AUTO 26009KT 240V300 9999 FEW031 SCT037 BKN054 13/08 Q1014 TEMPO 28015G25KT SHRA BKN020TCU BKN040
LFKF 171400Z AUTO 25007KT 9999 SCT064 SCT074 BKN088 13/08 Q1014 TEMPO 28015G25KT SHRA BKN020TCU BKN040
LFKF 171430Z AUTO 27008KT 220V300 9999 BKN047 BKN058 13/08 Q1014 TEMPO 28015G25KT SHRA BKN015TCU BKN040

Airport on the map: